{"data":{"norad_id":69699,"intl_designator":"2026-145Y","name":"STARLINK-37974","alt_names":[],"object_type":"PAYLOAD","status":"ACTIVE","operator":null,"country":"US","launch_date":"2026-06-25","launch_site_code":"AFWTR","launch_vehicle":null,"mission":null,"orbit_class":"UNKNOWN","rcs_meters":null,"size_class":null,"mass_kg":null,"dimensions":null,"purposes":["comms"],"wikipedia_slug":null,"has_3d_model":false,"image_url":null,"decayed_at":null,"tle_current":{"epoch":"2026-09-19T08:41:11.941728Z","epoch_age_seconds":119913,"freshness":"FRESH","line1":"1 69699U 26145Y   26262.36194377  .00011876  00000+0  36957-3 0  9990","line2":"2 69699  97.2848 109.1182 0001898  90.0193 270.1268 15.33448575 13374","mean_motion":15.33448575,"eccentricity":0.0001898,"inclination_deg":97.2848,"raan_deg":109.1182,"arg_perigee_deg":90.0193,"mean_anomaly_deg":270.1268,"bstar":0.00036957,"rev_number":1337,"period_min":93.905985728931,"perigee_km":464.23360933575,"apogee_km":466.8314662923,"semimajor_km":6843.669537814,"source":"CELESTRAK","updated_at":"2026-09-20T09:00:44.256730Z"}}}